Regional Weather Roundup
Issued by NWS Jackson, KY

Home | Current Version | Previous Version | Graphics & Text | Print | Product List | Glossary On
Versions: 1 2 3 4 5 6 7 8 9 10 11 12 13 14 15 16 17 18 19 20 21 22 23 24 25 26 27
000
ASUS43 KJKL 270310
RWRJKL

EAST KENTUCKY HOURLY WEATHER ROUNDUP
NATIONAL WEATHER SERVICE JACKSON KY
1100 PM EDT FRI MAY 26 2017

NOTE: "FAIR" INDICATES FEW OR NO CLOUDS BELOW 12,000 FEET WITH
NO SIGNIFICANT WEATHER AND/OR OBSTRUCTIONS TO VISIBILITY.

* THESE REPORTS ARE NOT UNDER NWS QUALITY CONTROL AND MAY NOT
  REPORT WEATHER SUCH AS PRECIPITATION AND FOG.

KYZ079-080-083-085-087-088-110-112-115-119-120-270400
...EASTERN KENTUCKY...

CITY           SKY/WX    TMP DP  RH WIND       PRES   REMARKS
JACKSON        CLEAR     67  58  72 CALM      29.96R
LONDON         MOCLDY    69  60  73 SE3       29.97R
SOMERSET*      CLOUDY    72  61  68 CALM      29.96R
MONTICELLO*    CLOUDY    71  63  75 NE7       29.96R
WILLIAMSBURG*  PTCLDY    68  63  83 SE5       29.97R
MIDDLESBORO*   MOCLDY    65  62  91 CALM      30.00R
HARLAN APT*    MOCLDY    63  59  88 CALM      30.01R
PIKE CO APT*     N/A     65  56  71 S5        29.97S
BIG SANDY APT* CLEAR     65  57  74 CALM      29.96R
MOREHEAD APT*  CLOUDY    70  59  68 CALM      29.95R
ASHLAND*       PTCLDY    63  61  94 CALM      29.90R
$$

KYZ035-036-041-042-044-050-067-078-099-270400
...CENTRAL KENTUCKY...

CITY           SKY/WX    TMP DP  RH WIND       PRES   REMARKS
MT STERLING*   CLOUDY    66  63  88 S6        29.94R
FLEMING/MASON* CLOUDY    70  59  68 S8        29.92S
DANVILLE*      CLOUDY    70  63  78 S3        29.94R
LEXINGTON      CLOUDY    73  61  65 S5        29.91R
FRANKFORT      CLOUDY    75  61  61 S8        29.88R
LOUISVILLE     CLOUDY    77  64  64 S8        29.86R
LEBANON*         N/A     73  63  68 S9        29.91R
GLASGOW*       CLOUDY    75  60  59 CALM      29.91R
BOWLING GREEN  CLOUDY    78  61  55 SW6       29.90R
$$

KYZ091>093-OHZ055-061-077-WVZ005-015-034-035-042-270400
...SOUTHERN OHIO/WEST VIRGINIA...

CITY           SKY/WX    TMP DP  RH WIND       PRES   REMARKS
COVINGTON      CLOUDY    73  63  70 S10       29.87R
COLUMBUS       MOCLDY    66  58  75 CALM      29.89R
DAYTON         TSTM      65  62  90 NW24      29.96R VSB 3/4
WILMINGTON     CLOUDY    69  61  75 S9        29.87S
HUNTINGTON     CLEAR     65  57  75 SW6       29.92R
CHARLESTON     CLEAR     62  56  80 CALM      29.93S
PINEVILLE*     CLEAR     56  55  95 MISG      30.04S
BECKLEY        CLEAR     56  51  84 S5        30.02R
BLUEFIELD      CLEAR     58  50  75 W7        30.05R
LOGAN CO APT*    N/A     63  55  77 CALM      29.97S
$$

VAZ002-007-008-TNZ017-027-036-066-071-270400
...SOUTHWEST VIRGINIA/EAST TENNESSEE...

CITY           SKY/WX    TMP DP  RH WIND       PRES   REMARKS
WISE*          CLEAR     63  54  72 CALM      30.07R
JONESVILLE*      N/A     63  59  88 CALM      30.02R
ABINGDON*      CLEAR     62  57  84 CALM      30.04R
BRISTOL        PTCLDY    61  57  87 CALM      30.01R
MORRISTOWN*    MOCLDY    66  61  82 CALM      29.99R
SEVIERVILLE*   CLEAR     64  59  82 CALM      29.98R
KNOXVILLE      CLEAR     71  61  70 CALM      29.97R
LAFOLLETTE*    PTCLDY    64  63  94 CALM      30.01R
OAK RIDGE      CLEAR     67  62  84 CALM      29.99R
CROSSVILLE     CLEAR     68  58  70 CALM      30.01R
NASHVILLE      PTCLDY    74  60  61 S5        29.93R
$$

...KEY TO REMARKS...
VSB - VISIBILITY IN MILES
WCI - WIND CHILL INDEX
HX  - HEAT INDEX

$$




USA.gov is the U.S. government's official web portal to all federal, state and local government web resources and services.